Location: Kelshall
(52.0000°N, 0.0500°W)
Time: 21:00:29
(UTC+00:00)

ATLAS 2AS CENTAUR R/B - Pass Details

Date: 26 January 2021
Orbit: 947 x 1265 km, 63.7° (Epoch: 13 February)

Event Time Altitude Azimuth Distance (km) Brightness Sun altitude
Rises 19:15:13 0° 290° (WNW) 4,214 7.0 -24.0°
Reaches altitude 10° 19:18:25 10° 300° (WNW) 3,226 6.0 -24.5°
Maximum altitude 19:25:25 35° 4° (N) 1,866 3.9 -25.6°
Enters shadow 19:27:37 29° 35° (NE) 2,018 3.8 -25.9°
